Scappoose, OR

6:04 AM PST on November 20, 2017 (GMT -0800)
Scappoose Industrial

Weather History for KSPB - March, 2013

Change the Weather History Date:

Friday, March 1, 2013

  Actual Average Record
Temperature  
Mean Temperature 54 °F -  
Max Temperature 62 °F - 62 °F (2013)
Min Temperature 47 °F - 27 °F (2002)
Degree Days  
Heating Degree Days 10    
Month to date heating degree days 10  
Since 1 July heating degree days 3391  
Cooling Degree Days 0    
Month to date cooling degree days 0  
Year to date cooling degree days 0  
Growing Degree Days 4 (Base 50)    
Moisture  
Dew Point 48 °F    
Average Humidity 79    
Maximum Humidity 93    
Minimum Humidity 64    
Precipitation  
Precipitation 0.00 in - 0.59 in (2016)
Month to date precipitation 0.00  
Year to date precipitation 3.86  
Sea Level Pressure  
Sea Level Pressure 30.39 in    
Wind  
Wind Speed 4 mph (SSE)    
Max Wind Speed 12 mph    
Max Gust Speed 16 mph    
Visibility 10 miles    
Events      
T = Trace of Precipitation, MM = Missing Value Source: NWS Daily Summary

Daily Weather History Graph

Daily Weather History Graph

Search for Another Location

Airport or City:

Trip Planner

Search our weather history database for the weather conditions in past years. The results will help you decide how hot, cold, wet, or windy it might be!

Date:

Astronomy

Mar. 01, 2013 Rise Set
Actual Time 6:49 AM PST 5:58 PM PST
Civil Twilight 6:19 AM PST 6:28 PM PST
Nautical Twilight 5:45 AM PST 7:03 PM PST
Astronomical Twilight 5:10 AM PST 7:37 PM PST
Moon 10:55 PM PST (3/1) 8:24 AM PST (3/1)
Length of Visible Light 12h 08m
Length of Day
11h 09m
Waning Gibbous, 82% of the Moon is Illuminated
Mar 1
Waning Gibbous
Mar 4
Last Quarter
Mar 11
New
Mar 19
First Quarter
Mar 27
Full

Hourly Weather History & Observations

Time (PST) Temp. Dew Point Humidity Pressure Visibility Wind Dir Wind Speed Gust Speed Precip Events Conditions
1:53 AM 52.0 °F 48.0 °F 86% 30.42 in 10.0 mi South 5.8 mph - N/A   Overcast
2:53 AM 52.0 °F 48.0 °F 86% 30.42 in 10.0 mi Calm Calm - N/A   Overcast
3:07 AM 51.8 °F 46.4 °F 82% 30.42 in 10.0 mi Calm Calm - N/A   Overcast
4:30 AM 51.8 °F 48.2 °F 88% 30.41 in 10.0 mi SSE 6.9 mph - N/A   Scattered Clouds
4:53 AM 52.0 °F 48.0 °F 86% 30.41 in 10.0 mi SSE 8.1 mph - N/A   Mostly Cloudy
5:48 AM 51.8 °F 46.4 °F 82% 30.41 in 10.0 mi SSE 6.9 mph - N/A   Mostly Cloudy
5:53 AM 52.0 °F 46.9 °F 83% 30.42 in 10.0 mi SSE 6.9 mph - N/A   Mostly Cloudy
6:53 AM 50.0 °F 46.9 °F 89% 30.43 in 10.0 mi South 3.5 mph - N/A   Clear
7:53 AM 51.1 °F 48.0 °F 89% 30.44 in 10.0 mi Calm Calm - N/A   Clear
8:53 AM 52.0 °F 48.0 °F 86% 30.43 in 10.0 mi ESE 4.6 mph - N/A   Mostly Cloudy
9:37 AM 53.6 °F 48.2 °F 82% 30.44 in 10.0 mi Calm Calm - N/A   Overcast
9:53 AM 54.0 °F 48.0 °F 80% 30.44 in 10.0 mi SSE 3.5 mph - N/A   Overcast
10:53 AM 55.0 °F 48.0 °F 77% 30.43 in 10.0 mi South 3.5 mph - N/A   Overcast
11:53 AM 55.9 °F 48.0 °F 75% 30.43 in 10.0 mi SE 4.6 mph - N/A   Overcast
12:53 PM 57.9 °F 48.0 °F 70% 30.41 in 10.0 mi SSE 5.8 mph - N/A   Overcast
1:05 PM 57.2 °F 48.2 °F 72% 30.40 in 10.0 mi SE 8.1 mph - N/A   Overcast
1:25 PM 57.2 °F 48.2 °F 72% 30.39 in 10.0 mi ESE 6.9 mph - N/A   Overcast
1:41 PM 57.2 °F 48.2 °F 72% 30.39 in 10.0 mi ESE 6.9 mph - N/A   Overcast
2:40 PM 57.2 °F 48.2 °F 72% 30.38 in 10.0 mi SE 4.6 mph - N/A   Overcast
2:53 PM 59.0 °F 48.0 °F 67% 30.38 in 10.0 mi SSE 6.9 mph - N/A   Overcast
3:01 PM 59.0 °F 48.2 °F 67% 30.37 in 10.0 mi SSE 5.8 mph - N/A   Overcast
3:53 PM 60.1 °F 48.9 °F 67% 30.37 in 10.0 mi South 3.5 mph - N/A   Mostly Cloudy
4:53 PM 59.0 °F 48.0 °F 67% 30.35 in 10.0 mi SSE 3.5 mph - N/A   Mostly Cloudy
5:53 PM 57.0 °F 48.0 °F 72% 30.34 in 10.0 mi Calm Calm - N/A   Mostly Cloudy
6:53 PM 54.0 °F 48.9 °F 83% 30.33 in 10.0 mi WNW 4.6 mph - N/A   Mostly Cloudy
7:53 PM 50.0 °F 46.9 °F 89% 30.34 in 10.0 mi Calm Calm - N/A   Mostly Cloudy
8:53 PM 48.9 °F 46.9 °F 93% 30.34 in 10.0 mi West 4.6 mph - N/A   Overcast
9:53 PM 48.9 °F 46.0 °F 90% 30.33 in 10.0 mi Calm Calm - N/A   Overcast
10:53 PM 48.9 °F 46.9 °F 93% 30.33 in 10.0 mi Calm Calm - N/A   Overcast
11:53 PM 48.0 °F 46.0 °F 93% 30.32 in 10.0 mi Calm Calm - N/A   Mostly Cloudy